Weather in Greymouth

New Zealand     42°27′44″S   171°11′48″E
temp.,
°C
wind,
m/s
gust,
m/s
humid.,
%
clouds,
%
prec.,
mm/h
press.,
hPa
HPBL,
m
26 july, mon
mon2600:00+8ese3695100 2.3 1005250
03:00+8ese3692100 0.7 1002216
06:00+9e3891100 2.1 999320
09:00+9ene41092100 2.3 996435
12:00+9e2693100 8.2 996298
15:00+11ne3789100 1.3 994535
18:00+9ene2595100 3.3 994259
21:00+9ne2394100 1.3 994151
27 july, tue
tue2700:00+9nne2495100 2.9 994188
03:00+9sw61287100 2.9 9961101
06:00+9sw6138199 3.6 10001270
09:00+9sw5108196 0.9 1004882
12:00+11wsw597838 2.6 10061266
15:00+10wsw488254 1.9 10071055
18:00+8wsw49859 3.3 1010467
21:00+7s1489100 0.2 1012174
28 july, wed
wed2800:00+5e229499 0.3 101447
03:00+7e2291100 0.0 101549
06:00+7ese1191100 0.1 101644
09:00+7ese1292100 0.0 101782
12:00+10ese1184100 0.0 1017171
15:00+11nne0178100 0.0 1016341
18:00+9se1188100 0.0 101734
21:00+9ese1190100 0.0 101739
29 july, thu
thu2900:00+9e1190100 0.0 101745
03:00+8e128999 0.0 101758
06:00+8e228899 0.0 101678
09:00+8e238336 0.0 1017114
12:00+13ene1262100 0.0 1015475
15:00+13nnw1263100 0.0 1014740
18:00+9e118850 0.0 101438
21:00+9e2383100 0.0 101480
30 july, fri
fri3000:00+9ese238461 0.0 101483
03:00+9e2383100 0.0 101388
06:00+9ese3581100 0.0 1013120
09:00+10ese3778100 0.0 1014163
12:00+13ese237280 0.0 1013150
15:00+15e2363100 0.0 1011472
18:00+11ene118598 0.0 101112
21:00+9ese229280 0.0 101235